Content
SEND FEEDBACK

Daily
Averages
Monthly
Summary
United States of America

TIBBEE, MISSISSIPPI


Home > North America > United States > Mississippi
Elevation: 21 feet     Latitude: 33 32N     Longitude: 088 38W

WEATHER
 
SELECT A DAY
Number of Records: 375,341;   Date Range: 1/1/95 - 7/29/14
 
SHARE

PRINT THIS DATA

[ ← Previous Day ]
WEATHER ALMANAC - JANUARY 31, 2013
[ Next Day → ]
[ °C ]   °F
Weather ElementAverageHighLow
Temperature40.5 °F55.4 °F (2:50 pm)32 °F (5:55 am)
Dewpoint26.8 °F30.2 °F (8:45 am)26.6 °F (12:35 am)
Humidity60.2 %81 % (7:45 am)33 % (2:50 pm)
Barometer30.16 in30.24 in (10:45 am)30.08 in (1:15 am)
Wind Speed5.9 mph13.8 mph (2:50 pm)
Wind Gust16.1 mph (1:50 pm)
Weather ElementAverage
Visibility10 mi
Wind DirectionWSW (241.9 °)

Weather ElementTotal
Precipitation---
Heating Degree Days21.3 (Base 65)
Averaged from 42 records on January 31, 2013
WEATHER CONDITIONS BREAKOUT
WIND DIRECTION BREAKOUT
WEATHER BY HOUR - JANUARY 31, 2013
[ °C ]   °F
Local TimeTemperatureDewpointHumidityBarometerVisibilityWind DirectionWind SpeedGust SpeedPrecipitationEventsConditions
12:35 AM37.4 °F26.6 °F65 %30.09 in10.0 miWest (280°)5.8 mphClear
12:55 AM37.4 °F26.6 °F65 %30.09 in10.0 miWest (280°)4.6 mphClear
1:15 AM35.6 °F26.6 °F70 %30.08 in10.0 miWest (280°)3.5 mphClear
1:35 AM35.6 °F26.6 °F70 %30.09 in10.0 miCalmClear
1:55 AM35.6 °F26.6 °F70 %30.09 in10.0 miWest (260°)4.6 mphClear
2:15 AM35.6 °F26.6 °F70 %30.09 in10.0 miWest (260°)3.5 mphClear
2:35 AM35.6 °F26.6 °F70 %30.10 in10.0 miWSW (240°)5.8 mphClear
2:55 AM35.6 °F26.6 °F70 %30.11 in10.0 miWSW (250°)5.8 mphClear
3:15 AM35.6 °F26.6 °F70 %30.11 in10.0 miWSW (240°)5.8 mphClear
3:35 AM33.8 °F26.6 °F75 %30.12 in10.0 miWSW (240°)5.8 mphClear
3:55 AM33.8 °F26.6 °F75 %30.12 in10.0 miWest (260°)3.5 mphClear
4:15 AM33.8 °F26.6 °F75 %30.12 in10.0 miWest (260°)4.6 mphClear
4:35 AM33.8 °F26.6 °F75 %30.13 in10.0 miWSW (240°)4.6 mphClear
4:55 AM33.8 °F26.6 °F75 %30.14 in10.0 miWSW (250°)4.6 mphClear
5:15 AM33.8 °F26.6 °F75 %30.14 in10.0 miWSW (250°)3.5 mphClear
5:35 AM33.8 °F26.6 °F75 %30.14 in10.0 miWest (260°)3.5 mphClear
5:45 AM33.8 °F26.6 °F75 %30.15 in10.0 miWSW (250°)3.5 mphClear
5:55 AM32.0 °F26.6 °F80 %30.14 in10.0 miWSW (240°)3.5 mphClear
6:45 AM32.0 °F26.6 °F80 %30.15 in10.0 miWest (270°)4.6 mphClear
7:45 AM33.8 °F28.4 °F81 %30.18 in10.0 miWNW (300°)4.6 mphClear
8:45 AM39.2 °F30.2 °F70 %30.21 in10.0 miWNW (290°)5.8 mphClear
10:45 AM46.4 °F28.4 °F50 %30.24 in10.0 miWNW (290°)8.1 mphClear
11:55 AM48.2 °F26.6 °F43 %30.22 in10.0 miWest (260°)6.9 mphClear
12:50 PM51.8 °F26.6 °F38 %30.20 in10.0 miWest (280°)5.8 mphClear
1:50 PM53.6 °F26.6 °F35 %30.18 in10.0 miWest (280°)9.2 mph16.1 mphClear
2:50 PM55.4 °F26.6 °F33 %30.17 in10.0 miWNW (290°)13.8 mphClear
3:50 PM55.4 °F26.6 °F33 %30.15 in10.0 miWSW (250°)9.2 mphClear
4:50 PM53.6 °F26.6 °F35 %30.16 in10.0 miWSW (240°)11.5 mphClear
5:50 PM48.2 °F26.6 °F43 %30.16 in10.0 miSW (220°)6.9 mphClear
6:50 PM48.2 °F26.6 °F43 %30.17 in10.0 miSW (230°)4.6 mphClear
7:50 PM42.8 °F26.6 °F53 %30.18 in10.0 miSSW (210°)6.9 mphClear
8:15 PM44.6 °F26.6 °F49 %30.19 in10.0 miSW (220°)5.8 mphClear
8:35 PM42.8 °F26.6 °F53 %30.20 in10.0 miSW (220°)5.8 mphClear
8:55 PM42.8 °F26.6 °F53 %30.21 in10.0 miSW (230°)5.8 mphClear
9:15 PM42.8 °F26.6 °F53 %30.22 in10.0 miSSW (210°)5.8 mphClear
9:35 PM41.0 °F26.6 °F57 %30.21 in10.0 miSSW (210°)6.9 mphClear
10:15 PM42.8 °F26.6 °F53 %30.21 in10.0 miSW (220°)8.1 mphClear
10:35 PM42.8 °F26.6 °F53 %30.21 in10.0 miSW (220°)8.1 mphClear
10:55 PM42.8 °F26.6 °F53 %30.22 in10.0 miSSW (210°)6.9 mphClear
11:15 PM41.0 °F26.6 °F57 %30.22 in10.0 miSW (220°)6.9 mphClear
11:35 PM41.0 °F26.6 °F57 %30.21 in10.0 miSW (220°)6.9 mphClear
11:55 PM42.8 °F26.6 °F53 %30.22 in10.0 miSW (230°)8.1 mphClear
Hourly data recorded from KGTR, located miles away from Tibbee, Mississippi







STORIES FROM OUR PARTNERS